Wind_Speed
31 30 26 15 11 6 3 1 1 3 4 9 9 10 8 5 10 11 13 13 12 12 11 11 11 10 10 9 9 9 10 11 11 14 21 20 22 22 22 23 24 26 27 27
36 38 33 23 19 15 11 7 6 4 3 2 5 6 4 5 5 6 9 9 8 6 6 8 8 8 7 8 8 6 10 16 20 18 19 19 19 22 24 25 26 26 27 28
40 48 38 31 27 22 20 18 12 9 8 7 5 6 7 5 7 5 5 4 3 2 1 3 7 5 4 7 8 8 12 17 20 20 21 22 22 26 28 29 30 30 31 30
44 51 40 38 36 31 29 27 20 15 15 11 12 12 10 8 8 6 4 3 1 2 3 6 7 6 7 8 9 13 17 19 19 20 22 24 26 28 30 32 33 33 34 34
51 53 46 42 45 45 40 34 27 23 20 17 17 17 14 14 11 8 6 7 6 7 8 9 9 8 8 11 14 17 20 21 23 25 25 28 29 30 31 33 34 34 36 38
58 60 50 47 49 46 46 38 33 28 25 20 26 21 19 18 14 13 12 12 11 14 12 12 13 13 15 17 19 21 23 26 27 28 30 31 31 31 33 35 36 36 39 41
65 64 59 55 51 48 47 43 36 34 29 32 28 26 26 22 22 20 19 18 17 19 18 18 20 20 21 23 25 26 27 29 31 31 31 31 33 33 35 38 39 40 42 46
73 71 67 61 57 54 52 51 42 38 37 42 35 36 28 25 23 27 30 26 24 25 24 25 25 25 27 28 31 32 32 33 33 33 33 35 37 39 38 38 40 40 40 45
79 75 76 70 67 64 58 52 48 44 40 41 40 42 33 31 33 33 33 31 30 30 31 31 31 31 31 33 34 36 37 37 38 39 39 40 41 41 44 44 46 47 40 47
85 82 81 79 77 69 63 62 57 50 44 42 44 46 42 39 38 38 37 35 33 35 34 33 33 33 33 34 35 36 38 40 41 41 43 43 43 44 48 45 50 44 51 52
91 87 86 86 81 74 70 66 61 55 48 45 46 47 47 43 42 40 41 40 40 40 39 37 35 37 38 39 40 39 39 40 41 42 43 44 45 45 48 49 49 46 51 53
95 94 92 85 83 83 78 74 68 60 55 52 51 51 55 52 45 43 45 42 46 44 41 38 38 41 43 43 43 43 43 42 43 45 46 47 48 47 51 43 50 41 40 50
101 98 95 93 90 86 78 73 68 64 61 55 53 51 56 56 51 47 45 44 49 47 43 43 46 46 46 48 47 47 47 47 48 50 51 52 52 52 51 52 46 41 46 40
104 102 98 93 86 84 84 78 74 70 64 60 53 54 60 58 56 49 49 48 49 52 49 50 50 49 49 50 51 53 53 53 54 55 55 56 54 50 47 52 50 36 40 49
99 101 101 95 92 94 89 86 82 75 66 64 57 59 61 61 59 56 53 51 49 53 54 54 53 52 53 54 57 60 61 59 59 59 58 57 53 49 46 45 49 49 50 53
92 97 102 98 96 97 94 90 87 81 74 69 65 62 62 66 64 59 55 53 52 55 56 57 57 56 57 59 63 67 66 65 64 64 61 56 55 55 55 53 50 47 50 50
87 92 100 99 101 101 102 95 92 84 78 73 69 64 69 67 65 62 61 58 57 57 59 61 62 60 61 63 66 69 70 69 69 67 58 56 58 60 59 57 56 48 52 56
84 87 92 98 104 106 95 92 90 87 82 82 76 73 71 72 69 68 64 62 63 63 65 67 67 65 65 67 69 72 72 73 72 67 61 62 62 62 63 62 60 57 55 63
77 85 87 95 101 101 98 96 92 90 84 82 79 79 76 75 73 71 69 68 70 70 70 69 70 71 71 72 75 74 75 74 73 65 63 64 66 67 68 68 67 68 65 59
71 78 84 87 94 99 96 95 96 93 89 86 83 82 81 77 77 76 74 75 75 75 73 73 73 75 77 77 76 74 72 71 68 67 68 71 72 73 74 73 69 70 65 55
68 74 75 80 86 93 96 96 97 97 87 84 83 84 80 76 80 81 78 80 80 79 78 79 79 77 78 76 72 69 66 68 69 70 71 75 76 75 75 75 68 64 57 56
66 70 71 74 79 85 92 96 97 94 90 87 85 85 79 79 78 78 79 80 79 79 78 80 79 77 74 71 66 63 66 71 72 75 78 78 79 78 74 71 63 63 60 54
62 64 63 50 56 80 89 93 95 94 91 89 89 86 79 77 77 76 74 77 76 76 79 78 76 74 73 69 68 69 70 73 75 79 81 80 79 77 76 70 69 62 59 57
59 64 60 60 66 66 85 89 94 93 91 87 87 82 76 81 77 76 76 75 75 76 76 77 75 74 75 74 75 73 73 78 80 82 81 78 77 74 72 73 68 64 65 69
57 62 56 67 57 48 71 84 87 92 90 86 84 82 82 83 81 79 78 77 77 77 75 76 77 77 75 79 81 77 77 79 81 83 80 78 75 77 76 74 73 72 73 77
55 53 60 53 55 45 47 62 85 89 86 84 83 82 82 82 81 80 80 80 79 77 78 81 82 82 79 78 81 82 81 80 80 77 78 78 75 74 72 70 73 78 86 90
Wind_Direction
257 260 259 245 248 258 283 10 114 332 78 101 100 112 115 106 115 111 112 112 110 103 95 92 90 87 75 57 48 38 35 19 3 351 343 346 355 360 2 4 360 356 350 346
249 253 253 251 246 238 249 257 256 224 268 134 125 146 177 238 190 133 124 119 116 100 88 77 62 55 52 45 24 12 358 1 357 353 353 345 344 345 348 351 352 348 346 339
236 246 254 250 248 239 241 244 241 244 230 235 217 222 224 193 182 165 156 136 117 120 77 14 351 335 2 354 1 358 346 346 343 340 338 339 336 337 340 343 345 345 340 337
237 242 248 250 251 248 240 239 228 237 236 225 236 231 230 219 203 193 213 202 263 298 313 328 322 319 328 330 334 329 327 331 334 332 332 331 333 331 333 335 337 336 335 333
240 238 241 241 243 250 244 239 226 226 236 232 232 241 234 238 238 232 244 277 281 290 296 300 297 303 307 310 316 319 319 323 324 325 326 326 326 326 324 327 331 329 329 330
237 242 241 237 238 244 252 244 240 232 234 239 241 235 240 239 245 234 233 242 263 267 265 260 270 282 293 302 308 311 312 314 317 319 321 321 323 321 323 324 327 328 329 329
236 242 242 241 239 243 252 253 245 244 243 249 242 241 233 244 241 254 244 239 240 248 259 267 275 282 290 296 299 301 305 307 311 314 316 317 320 319 321 323 324 329 331 328
231 236 242 243 245 242 236 244 247 244 241 247 243 244 241 245 253 248 248 252 249 257 260 265 272 281 286 291 295 299 301 304 304 308 312 315 316 321 321 319 321 326 329 328
231 236 240 237 238 240 241 241 240 243 241 243 253 252 246 243 250 254 256 258 259 261 265 270 276 281 287 289 291 294 299 302 306 310 311 315 317 323 318 321 324 331 330 330
230 232 236 238 238 238 241 238 239 242 238 235 239 251 250 248 251 256 261 264 265 267 269 273 277 282 284 286 289 291 296 301 304 307 312 313 316 316 316 318 321 313 319 315
229 229 234 236 238 239 240 242 244 243 241 237 237 243 253 251 249 253 259 263 265 265 268 273 278 280 281 284 287 290 293 295 299 303 304 308 310 313 310 317 321 325 313 306
230 229 230 235 236 237 237 238 239 239 238 238 236 234 244 252 250 249 254 260 263 266 271 273 273 275 278 282 285 288 289 293 296 300 303 304 308 311 314 297 312 316 315 312
228 228 227 229 232 235 238 241 243 243 242 245 243 241 242 249 254 254 254 254 264 268 270 271 271 274 279 281 285 288 289 292 296 299 302 304 306 306 307 310 312 320 311 308
227 226 227 228 230 231 234 237 239 240 243 245 243 240 244 246 252 254 255 256 256 262 265 268 273 276 278 281 285 287 290 293 296 300 302 303 303 306 310 310 309 308 304 301
227 226 226 226 227 231 231 231 232 233 235 238 236 236 242 247 249 252 253 256 259 263 267 270 273 275 278 281 285 288 289 292 298 301 303 303 306 307 309 308 303 298 293 295
230 226 226 225 226 229 231 232 233 232 230 232 233 236 241 245 249 251 253 255 257 261 265 268 271 273 277 282 285 287 291 295 299 301 302 302 303 306 307 307 304 294 290 285
234 229 226 224 227 228 229 230 232 233 229 230 230 234 239 244 249 251 253 255 258 261 265 268 271 273 277 281 283 287 290 294 296 299 298 300 303 306 304 303 302 293 289 279
231 233 227 225 227 229 231 231 233 234 232 230 229 231 236 242 246 250 254 257 260 261 264 267 271 273 276 279 281 285 289 291 295 295 295 299 302 303 301 302 300 298 289 289
232 231 229 225 226 228 229 231 232 235 236 235 232 232 234 238 243 247 250 254 258 260 262 266 270 273 274 276 278 282 285 290 290 290 293 295 298 301 300 301 299 298 293 285
233 232 232 228 225 228 228 229 233 233 232 235 235 235 235 236 240 244 248 251 254 258 260 264 266 270 273 274 277 281 285 286 287 291 293 296 297 300 301 296 298 297 293 279
234 231 229 229 225 227 228 229 232 233 233 233 236 238 239 239 242 244 247 251 254 257 260 263 265 267 269 274 279 282 283 283 285 288 290 292 295 297 297 299 298 293 289 280
234 232 229 229 227 226 226 228 230 233 233 234 236 238 238 240 243 247 248 252 256 258 261 262 265 269 272 275 277 277 277 280 284 287 291 295 296 297 297 297 296 294 293 287
233 228 225 216 235 229 226 227 228 230 233 233 236 238 239 242 243 246 249 251 254 257 260 263 266 269 271 271 271 272 278 280 284 290 293 293 294 294 295 292 292 288 288 289
225 224 215 209 218 227 226 228 230 230 233 234 236 239 241 243 243 246 249 251 255 257 260 263 267 269 270 272 274 277 282 288 289 287 290 293 295 293 292 292 292 293 293 298
222 219 212 215 216 243 230 228 231 232 233 235 236 237 239 243 245 247 249 252 254 256 261 264 266 268 271 274 276 280 282 284 286 288 290 291 291 294 296 299 298 298 299 299
218 210 206 213 205 215 228 233 232 231 233 236 237 238 241 245 246 248 251 253 255 257 259 261 264 266 270 275 281 283 285 287 289 290 289 289 293 295 298 296 296 296 294 295
Height
10967 10967 10968 10972 10974 10974 10974 10973 10974 10976 10974 10973 10975 10976 10979 10983 10982 10982 10981 10981 10982 10982 10982 10982 10981 10981 10980 10981 10980 10981 10981 10980 10978 10976 10973 10972 10971 10968 10966 10963 10960 10955 10952 10949
10962 10959 10961 10967 10970 10971 10972 10972 10973 10973 10972 10973 10973 10975 10978 10981 10983 10982 10981 10981 10982 10982 10982 10982 10982 10982 10981 10980 10980 10980 10979 10978 10976 10974 10971 10969 10967 10965 10962 10958 10955 10953 10948 10944
10954 10947 10955 10960 10963 10967 10968 10969 10970 10971 10971 10971 10972 10974 10977 10978 10980 10979 10979 10980 10980 10980 10980 10980 10980 10980 10980 10979 10979 10979 10978 10976 10974 10972 10969 10966 10963 10959 10956 10952 10949 10947 10944 10940
10942 10939 10948 10953 10955 10958 10961 10963 10966 10968 10969 10970 10972 10972 10974 10976 10976 10975 10976 10976 10977 10978 10978 10978 10978 10978 10978 10977 10976 10975 10974 10973 10971 10969 10967 10964 10960 10955 10950 10948 10945 10942 10938 10935
10932 10929 10938 10944 10945 10944 10949 10957 10961 10963 10965 10968 10968 10969 10971 10971 10971 10970 10971 10972 10974 10974 10974 10975 10977 10977 10976 10974 10972 10971 10970 10969 10967 10965 10963 10959 10956 10951 10947 10945 10943 10939 10935 10930
10916 10915 10927 10934 10934 10936 10935 10948 10954 10958 10961 10964 10963 10967 10967 10967 10967 10969 10969 10970 10970 10970 10972 10973 10974 10974 10972 10970 10968 10966 10965 10964 10963 10961 10958 10955 10951 10948 10944 10940 10938 10934 10930 10925
10903 10906 10914 10920 10926 10928 10929 10936 10946 10951 10955 10953 10956 10959 10962 10962 10963 10964 10965 10966 10967 10968 10969 10969 10969 10968 10967 10965 10962 10960 10960 10958 10957 10956 10954 10950 10947 10944 10940 10935 10931 10927 10922 10918
10886 10891 10899 10909 10915 10920 10923 10923 10934 10940 10944 10940 10949 10950 10954 10957 10958 10957 10958 10960 10962 10962 10963 10963 10964 10963 10961 10959 10956 10954 10953 10952 10950 10949 10948 10945 10942 10939 10936 10932 10928 10925 10920 10913
10868 10878 10879 10889 10894 10901 10912 10919 10923 10928 10935 10936 10936 10936 10947 10949 10949 10950 10951 10952 10954 10954 10956 10957 10957 10956 10954 10952 10950 10946 10945 10943 10942 10941 10939 10937 10934 10932 10928 10925 10921 10917 10913 10907
10848 10856 10860 10866 10873 10886 10899 10902 10908 10918 10926 10931 10930 10928 10933 10939 10939 10940 10941 10941 10945 10945 10948 10949 10949 10948 10946 10945 10944 10942 10939 10936 10934 10932 10929 10928 10926 10923 10919 10916 10912 10906 10903 10895
10822 10835 10839 10844 10862 10876 10882 10890 10899 10908 10915 10922 10925 10924 10920 10925 10929 10931 10931 10932 10933 10935 10938 10939 10939 10938 10937 10936 10935 10934 10932 10931 10929 10927 10925 10921 10919 10917 10911 10908 10903 10896 10892 10887
10800 10808 10815 10834 10843 10849 10861 10872 10882 10893 10903 10908 10912 10916 10908 10910 10917 10922 10923 10923 10920 10925 10928 10928 10928 10926 10926 10926 10926 10925 10923 10923 10921 10919 10916 10913 10911 10909 10905 10897 10896 10890 10883 10878
10769 10784 10798 10804 10814 10830 10850 10863 10874 10881 10887 10897 10902 10907 10903 10901 10905 10909 10913 10915 10908 10911 10915 10916 10915 10917 10916 10915 10915 10913 10912 10912 10911 10909 10906 10904 10902 10901 10897 10888 10886 10880 10873 10865
10739 10760 10778 10793 10811 10817 10823 10840 10851 10862 10874 10884 10897 10896 10890 10892 10893 10900 10902 10904 10905 10902 10905 10905 10906 10906 10906 10904 10903 10900 10900 10899 10899 10898 10896 10893 10892 10891 10888 10882 10876 10873 10867 10858
10720 10742 10757 10777 10785 10788 10802 10814 10826 10840 10858 10864 10880 10879 10878 10880 10883 10888 10892 10895 10897 10894 10894 10894 10895 10894 10893 10892 10889 10886 10885 10887 10888 10886 10884 10880 10877 10877 10875 10873 10867 10863 10857 10851
10704 10725 10736 10755 10764 10766 10780 10796 10806 10820 10832 10846 10857 10867 10869 10866 10869 10876 10880 10883 10885 10883 10882 10881 10882 10883 10882 10879 10876 10870 10871 10873 10873 10873 10869 10867 10863 10862 10862 10861 10858 10854 10848 10840
10687 10702 10714 10739 10741 10745 10748 10771 10784 10802 10815 10829 10840 10854 10848 10853 10856 10861 10864 10870 10872 10872 10870 10869 10869 10873 10872 10870 10864 10860 10859 10861 10860 10859 10858 10855 10851 10849 10847 10843 10842 10840 10835 10825
10669 10679 10697 10714 10719 10722 10759 10765 10774 10785 10798 10804 10819 10830 10835 10838 10843 10846 10853 10857 10857 10858 10857 10855 10856 10861 10860 10856 10853 10850 10849 10849 10848 10845 10842 10841 10838 10836 10833 10830 10828 10825 10819 10811
10655 10661 10674 10690 10700 10716 10735 10745 10757 10767 10786 10794 10805 10810 10819 10823 10825 10831 10837 10839 10839 10840 10842 10844 10844 10844 10844 10842 10840 10840 10840 10839 10833 10832 10830 10827 10825 10824 10819 10816 10813 10807 10801 10792
10636 10646 10658 10671 10689 10698 10720 10730 10734 10745 10761 10775 10786 10792 10798 10809 10811 10815 10818 10820 10820 10821 10826 10828 10830 10828 10825 10827 10828 10829 10829 10825 10821 10820 10816 10812 10809 10808 10802 10796 10794 10789 10784 10775
10620 10630 10642 10655 10669 10684 10699 10711 10715 10722 10751 10761 10769 10775 10785 10794 10795 10798 10803 10803 10805 10807 10809 10810 10811 10813 10813 10814 10817 10817 10815 10810 10808 10806 10803 10799 10796 10792 10787 10778 10771 10769 10764 10761
10606 10617 10631 10644 10655 10668 10681 10691 10700 10714 10728 10743 10748 10754 10768 10773 10780 10783 10785 10786 10791 10792 10793 10792 10794 10797 10799 10801 10803 10803 10799 10797 10795 10791 10787 10783 10779 10774 10769 10761 10754 10748 10745 10744
10597 10609 10620 10634 10639 10654 10661 10673 10683 10693 10706 10721 10728 10737 10752 10756 10762 10767 10772 10771 10775 10777 10776 10777 10781 10782 10782 10784 10785 10785 10783 10780 10778 10774 10770 10766 10761 10756 10749 10743 10737 10732 10727 10725
10585 10594 10612 10616 10624 10634 10645 10657 10667 10680 10689 10704 10714 10725 10738 10736 10744 10750 10753 10758 10760 10761 10762 10764 10767 10765 10763 10765 10767 10768 10767 10762 10759 10757 10753 10747 10740 10736 10731 10724 10718 10712 10706 10700
10574 10586 10600 10610 10623 10629 10635 10645 10654 10665 10675 10687 10699 10708 10714 10718 10726 10732 10735 10740 10743 10746 10750 10749 10746 10747 10750 10748 10746 10749 10749 10746 10741 10737 10732 10727 10721 10715 10709 10702 10697 10692 10688 10683
10568 10584 10594 10602 10615 10617 10623 10630 10640 10650 10660 10673 10680 10691 10698 10703 10711 10714 10717 10721 10724 10729 10730 10729 10730 10731 10736 10734 10728 10726 10726 10725 10721 10716 10710 10704 10698 10695 10689 10685 10680 10675 10669 10664